Spencer, IA

3:07 PM CST on February 25, 2017 (GMT -0600)
Spencer Municipal

Weather History for KSPW - September, 2013

Change the Weather History Date:

Monday, September 30, 2013

  Actual Average Record
Temperature  
Mean Temperature 70 °F -  
Max Temperature 82 °F 69 °F 89 °F (1976)
Min Temperature 57 °F 43 °F 26 °F (1984)
Cooling Degree Days 4    
Growing Degree Days 20 (Base 50)    
Moisture  
Dew Point 47 °F    
Average Humidity 48    
Maximum Humidity 65    
Minimum Humidity 27    
Precipitation  
Precipitation 0.00 in - - ()
Sea Level Pressure  
Sea Level Pressure 29.70 in    
Wind  
Wind Speed 15 mph (SSW)    
Max Wind Speed 22 mph    
Max Gust Speed 29 mph    
Visibility 10 miles    
Events      
Averages and records for this station are not official NWS values.
T = Trace of Precipitation, MM = Missing Value Source: NWS Daily Summary

Daily Weather History Graph

Daily Weather History Graph

Search for Another Location

Airport or City:

Trip Planner

Search our weather history database for the weather conditions in past years. The results will help you decide how hot, cold, wet, or windy it might be!

Date:

Astronomy

Sep. 30, 2013 Rise Set
Actual Time 7:17 AM CDT 7:03 PM CDT
Civil Twilight 6:48 AM CDT 7:31 PM CDT
Nautical Twilight 6:15 AM CDT 8:04 PM CDT
Astronomical Twilight 5:42 AM CDT 8:37 PM CDT
Moon 2:49 AM CDT (9/30) 4:39 PM CDT (9/30)
Length of Visible Light 12h 42m
Length of Day
11h 45m
Waning Crescent, 19% of the Moon is Illuminated
Sep 30
Waning Crescent
Oct 4
New
Oct 11
First Quarter
Oct 18
Full
Oct 26
Last Quarter

Hourly Weather History & Observations

Time (CDT) Temp. Dew Point Humidity Pressure Visibility Wind Dir Wind Speed Gust Speed Precip Events Conditions
12:53 AM 61.0 °F 43.0 °F 52% 29.80 in 10.0 mi South 16.1 mph 23.0 mph N/A   Clear
1:53 AM 61.0 °F 43.0 °F 52% 29.79 in 10.0 mi South 15.0 mph 21.9 mph N/A   Clear
2:53 AM 60.1 °F 44.1 °F 55% 29.77 in 10.0 mi South 11.5 mph - N/A   Clear
3:53 AM 60.1 °F 45.0 °F 57% 29.76 in 10.0 mi South 13.8 mph 20.7 mph N/A   Clear
4:53 AM 59.0 °F 46.0 °F 62% 29.76 in 10.0 mi South 11.5 mph 19.6 mph N/A   Clear
5:53 AM 57.9 °F 46.0 °F 65% 29.74 in 10.0 mi South 13.8 mph - N/A   Clear
6:53 AM 57.9 °F 46.0 °F 65% 29.73 in 10.0 mi South 15.0 mph - N/A   Clear
7:53 AM 57.9 °F 46.0 °F 65% 29.74 in 10.0 mi South 12.7 mph 20.7 mph N/A   Clear
8:53 AM 60.1 °F 46.0 °F 60% 29.72 in 10.0 mi SSW 18.4 mph 25.3 mph N/A   Clear
9:53 AM 64.9 °F 46.0 °F 50% 29.71 in 10.0 mi SSW 18.4 mph 28.8 mph N/A   Clear
10:53 AM 69.1 °F 46.9 °F 45% 29.71 in 10.0 mi SW 18.4 mph 28.8 mph N/A   Clear
11:53 AM 72.0 °F 46.9 °F 41% 29.69 in 10.0 mi SSW 19.6 mph 25.3 mph N/A   Clear
12:53 PM 77.0 °F 46.9 °F 34% 29.67 in 10.0 mi SSW 17.3 mph 25.3 mph N/A   Clear
1:53 PM 80.1 °F 46.9 °F 31% 29.65 in 10.0 mi SSW 19.6 mph 26.5 mph N/A   Clear
2:53 PM 82.0 °F 46.9 °F 29% 29.63 in 10.0 mi SSW 20.7 mph 27.6 mph N/A   Clear
3:53 PM 82.0 °F 46.9 °F 29% 29.62 in 10.0 mi South 19.6 mph 27.6 mph N/A   Partly Cloudy
4:53 PM 82.9 °F 46.0 °F 27% 29.62 in 10.0 mi SSW 17.3 mph 26.5 mph N/A   Clear
5:53 PM 80.1 °F 46.9 °F 31% 29.63 in 10.0 mi SSW 21.9 mph 26.5 mph N/A   Partly Cloudy
6:53 PM 73.9 °F 48.9 °F 41% 29.65 in 10.0 mi South 11.5 mph - N/A   Clear
7:53 PM 71.1 °F 51.1 °F 49% 29.65 in 10.0 mi South 11.5 mph - N/A   Clear
8:53 PM 69.1 °F 50.0 °F 51% 29.67 in 10.0 mi South 12.7 mph - N/A   Clear
9:53 PM 66.9 °F 50.0 °F 54% 29.68 in 10.0 mi South 11.5 mph - N/A   Clear
10:53 PM 66.9 °F 50.0 °F 54% 29.68 in 10.0 mi South 12.7 mph - N/A   Clear
11:53 PM 68.0 °F 50.0 °F 52% 29.67 in 10.0 mi South 18.4 mph 25.3 mph N/A   Clear